DW8761 Weather Reports


Display with metric or nautical units.
time (UTC)temp
F
wind
direction
speed
MPH
gust
MPH
rain 1hr
in
rain 24hr
in
rain mn
in
humidity
%
barometer
mb
20171125111354 42 161 4.0 9.0 0.00 0.05 0.01 96 1017.4
20171125105831 42 158 2.0 8.0 0.00 0.05 0.01 96 1017.7
20171125104323 42 181 3.0 9.0 0.00 0.05 0.01 96 1017.9
20171125102813 42 165 3.0 8.0 0.00 0.05 0.01 96 1018.1
20171125101310 42 168 3.0 11.0 0.00 0.05 0.01 96 1017.7
20171125095740 42 161 4.0 9.0 0.00 0.05 0.01 96 1018.1
20171125094233 42 171 4.0 9.0 0.00 0.05 0.01 96 1018.7
20171125092709 42 153 4.0 9.0 0.01 0.05 0.01 96 1018.7
20171125091159 42 158 4.0 10.0 0.01 0.05 0.01 96 1018.8
20171125085648 42 84 4.0 10.0 0.01 0.05 0.01 96 1018.8
20171125084122 42 159 4.0 8.0 0.00 0.04 0.01 96 1019.3
20171125082629 43 142 4.0 9.0 0.00 0.04 0.04 96 1019.2
20171125081050 43 157 2.0 8.0 0.00 0.04 0.04 96 1019.4
20171125075459 44 108 4.0 10.0 0.00 0.04 0.04 96 1019.6
20171125073938 44 114 3.0 6.0 0.00 0.04 0.04 96 1019.7
20171125072434 44 169 3.0 8.0 0.00 0.04 0.04 96 1020.1
20171125070924 44 159 3.0 7.0 0.00 0.04 0.04 96 1020.4
20171125065411 44 165 4.0 9.0 0.00 0.04 0.04 96 1020.3
20171125063901 44 148 3.0 7.0 0.00 0.04 0.04 96 1020.4
20171125062339 45 148 3.0 7.0 0.00 0.04 0.04 96 1020.3
20171125060819 45 100 2.0 7.0 0.00 0.04 0.04 95 1020.5
20171125055307 45 144 3.0 6.0 0.00 0.04 0.04 96 1020.5
20171125053754 45 122 2.0 7.0 0.00 0.04 0.04 95 1020.4
20171125052239 45 94 1.0 4.0 0.00 0.04 0.04 95 1020.6
20171125050718 45 159 2.0 6.0 0.00 0.04 0.04 95 1020.8
20171125045212 46 144 2.0 7.0 0.00 0.04 0.04 95 1020.2
20171125043705 46 163 2.0 5.0 0.00 0.04 0.04 95 1020.3
20171125042142 45 159 2.0 7.0 0.00 0.05 0.04 95 1020.2
20171125040625 46 139 2.0 5.0 0.00 0.05 0.04 95 1020.2
20171125035127 46 151 2.0 6.0 0.00 0.05 0.04 95 1020.2
20171125033727 46 122 1.0 3.0 0.00 0.05 0.04 94 1020.0
20171125032701 46 136 1.0 5.0 0.00 0.05 0.04 94 1020.0
20171125030522 46 156 2.0 5.0 0.00 0.05 0.04 94 1020.1
20171125025006 46 165 1.0 5.0 0.00 0.05 0.04 93 1020.1
20171125023452 47 140 0.0 3.0 0.00 0.05 0.04 93 1020.0
20171125021937 47 138 1.0 3.0 0.00 0.05 0.04 93 1020.0
20171125020414 47 132 1.0 4.0 0.00 0.05 0.04 92 1019.8
20171125014907 48 132 0.0 3.0 0.00 0.05 0.04 92 1019.8
20171125013350 48 162 0.0 5.0 0.00 0.05 0.04 91 1019.7
20171125011831 49 158 1.0 5.0 0.00 0.05 0.04 90 1020.0
20171125010318 50 175 2.0 6.0 0.00 0.05 0.04 91 1020.1
20171125004756 50 188 3.0 5.0 0.00 0.05 0.04 90 1020.2
20171125003243 51 173 1.0 4.0 0.00 0.05 0.04 90 1020.5
20171125001739 52 175 0.0 8.0 0.00 0.05 0.04 90 1020.4
20171125000222 52 207 1.0 7.0 0.00 0.05 0.04 90 1020.5
20171124234724 52 173 1.0 7.0 0.00 0.05 0.04 90 1020.5
20171124233155 52 178 1.0 8.0 0.00 0.05 0.04 90 1020.3
20171124231649 53 197 2.0 9.0 0.00 0.05 0.04 90 1020.4
20171124230128 53 238 1.0 6.0 0.00 0.05 0.04 90 1020.2
20171124224611 53 225 2.0 9.0 0.00 0.05 0.04 89 1020.0
20171124223100 54 194 2.0 9.0 0.00 0.05 0.04 90 1020.0
20171124221541 54 244 4.0 9.0 0.00 0.05 0.04 90 1020.0
20171124220015 54 178 2.0 8.0 0.00 0.05 0.04 91 1020.0
20171124214454 54 244 3.0 11.0 0.00 0.05 0.04 92 1020.1
20171124213009 53 188 3.0 7.0 0.00 0.05 0.04 93 1020.3
20171124211419 53 189 4.0 10.0 0.00 0.05 0.04 94 1020.3
20171124205922 53 175 4.0 10.0 0.00 0.05 0.04 94 1020.4
20171124204352 53 165 5.0 17.0 0.00 0.05 0.04 95 1020.3
20171124202829 52 198 3.0 8.0 0.00 0.07 0.04 96 1020.6
20171124201320 52 177 1.0 11.0 0.00 0.07 0.04 97 1020.8
20171124195800 52 165 3.0 10.0 0.00 0.07 0.04 97 1021.1
20171124194249 52 176 3.0 8.0 0.00 0.07 0.04 98 1021.4
20171124192730 51 183 4.0 10.0 0.00 0.10 0.04 98 1021.3
20171124191217 51 178 3.0 7.0 0.00 0.10 0.04 98 1021.3
20171124185658 51 115 4.0 8.0 0.00 0.10 0.04 98 1021.7
20171124184140 50 209 3.0 8.0 0.00 0.10 0.04 99 1021.8
20171124182622 50 165 2.0 11.0 0.00 0.11 0.04 99 1022.0
20171124181105 49 169 4.0 10.0 0.00 0.11 0.04 99 1022.0
20171124175550 49 138 3.0 8.0 0.00 0.11 0.04 99 1021.9
20171124174101 48 150 3.0 8.0 0.00 0.11 0.04 99 1021.8
20171124172503 48 154 3.0 7.0 0.00 0.23 0.04 99 1021.7
20171124170944 47 144 2.0 7.0 0.00 0.23 0.04 99 1021.5
20171124165426 47 144 3.0 7.0 0.00 0.23 0.04 99 1021.5
20171124163912 46 176 2.0 7.0 0.00 0.23 0.04 99 1021.5
20171124162359 46 144 1.0 7.0 0.00 0.24 0.04 98 1021.4
20171124160844 46 144 1.0 6.0 0.00 0.24 0.04 98 1021.3
20171124155321 46 130 2.0 6.0 0.00 0.24 0.04 99 1021.3
20171124153817 46 151 2.0 4.0 0.00 0.24 0.04 99 1021.3
20171124152259 45 142 1.0 5.0 0.00 0.27 0.04 98 1021.3
20171124150745 45 180 1.0 7.0 0.00 0.27 0.04 98 1021.2
20171124145235 45 153 1.0 5.0 0.00 0.27 0.04 98 1021.3
20171124143731 45 153 1.0 5.0 0.00 0.27 0.04 98 1021.3
20171124142209 45 148 2.0 4.0 0.00 0.27 0.04 98 1021.2
20171124140707 45 137 1.0 4.0 0.00 0.27 0.04 98 1021.2
20171124135139 45 157 1.0 5.0 0.00 0.27 0.04 98 1021.2
20171124133619 45 146 2.0 7.0 0.00 0.27 0.04 98 1021.1
20171124132111 45 165 2.0 5.0 0.00 0.28 0.04 98 1021.1
20171124130600 45 161 2.0 5.0 0.01 0.28 0.04 98 1021.0
20171124125048 45 143 3.0 5.0 0.01 0.28 0.04 98 1021.0
20171124123520 45 138 2.0 6.0 0.01 0.28 0.04 98 1021.1
20171124122018 46 163 2.0 5.0 0.04 0.28 0.04 98 1021.0
20171124120445 46 142 1.0 4.0 0.03 0.28 0.03 98 1020.9
20171124114935 47 201 1.0 3.0 0.03 0.28 0.03 99 1021.0
20171124113424 46 202 1.0 2.0 0.03 0.28 0.03 99 1021.3